This is the latest recevied weather packets stored in our database for station/object N2ZVN. If no packets are shown the sender has not sent any weather packets the latest 10 day(s).
| Time | Temp. | Humidity | Pressure | Rain* | Wind** | Luminosity | Snow |
|---|---|---|---|---|---|---|---|
| 1788547349 | 24.44° C | 60% | 1015.2 hPa | 0 mm | - | 57 W/m² | - |
| 1788547045 | 24.44° C | 64% | 1015.4 hPa | 0 mm | - | 428 W/m² | - |
| 1788546744 | 24.44° C | 65% | 1015.3 hPa | 0 mm | - | 124 W/m² | - |
| 1788546439 | 24.44° C | 64% | 1015.5 hPa | 0 mm | - | 138 W/m² | - |
| 1788546163 | 24.44° C | 61% | 1015.3 hPa | 0 mm | - | 85 W/m² | - |
| 1788545830 | 24.44° C | 64% | 1015.4 hPa | 0 mm | - | 96 W/m² | - |
| 1788545530 | 24.44° C | 63% | 1015.5 hPa | 0 mm | - | 106 W/m² | - |
| 1788545226 | 23.89° C | 64% | 1015.2 hPa | 0 mm | - | 307 W/m² | - |
| 1788544921 | 23.89° C | 61% | 1015.5 hPa | 0 mm | - | 106 W/m² | - |
| 1788544626 | 23.89° C | 62% | 1015.6 hPa | 0 mm | - | 77 W/m² | - |
| 1788544319 | 24.44° C | 61% | 1015.8 hPa | 0 mm | - | 65 W/m² | - |
| 1788544019 | 24.44° C | 63% | 1015.6 hPa | 0 mm | - | 75 W/m² | - |
| 1788543715 | 24.44° C | 64% | 1015.7 hPa | 0 mm | - | 74 W/m² | - |
| 1788543410 | 24.44° C | 65% | 1015.6 hPa | 0 mm | - | 79 W/m² | - |
| 1788543105 | 24.44° C | 67% | 1015.7 hPa | 0 mm | - | 82 W/m² | - |
| 1788542802 | 24.44° C | 66% | 1015.6 hPa | 0 mm | - | 94 W/m² | - |
| 1788542501 | 24.44° C | 64% | 1015.5 hPa | 0 mm | - | 103 W/m² | - |
| 1788542196 | 25° C | 61% | 1015.6 hPa | 0 mm | - | 139 W/m² | - |
| 1788541891 | 25° C | 65% | 1015.8 hPa | 0 mm | - | 280 W/m² | - |
| 1788541588 | 24.44° C | 65% | 1015.9 hPa | 0 mm | - | 684 W/m² | - |
| 1788541283 | 24.44° C | 63% | 1015.9 hPa | 0 mm | - | 742 W/m² | - |
| 1788540982 | 24.44° C | 63% | 1016 hPa | 0 mm | - | 645 W/m² | - |
| 1788540682 | 24.44° C | 60% | 1016.1 hPa | 0 mm | - | 443 W/m² | - |
| 1788540381 | 24.44° C | 63% | 1016.1 hPa | 0 mm | - | 472 W/m² | - |
| 1788540077 | 24.44° C | 64% | 1016.1 hPa | 0 mm | - | 421 W/m² | - |
* Rain latest hour (hover to see other rain measurements)
** Current wind speed in m/s (hover to see current wind gust speed)